When you browse on this site, cookies collect data to enhance your experience and personalize the content and advertising you see.
Visit our Privacy Policy to learn more. By continuing to use the site, you agree to this use of cookies and data.
  • In Denmark
  • List of Countries
  • For 7 days
  • Water Temperature
  • Satellite Maps
  • Weather Map
  • Weather Widgets
  • user-avatar
    Login

    Hourly Weather Selfoss

    Today, 16 January, Wednesday

    Time Temperature Precipitation Wind Pressure Humidity
    00:00 -11°C° 0 mm 8 mps 750 mmHg 69%
    01:00 -12°C° 0 mm 7 mps 751 mmHg 69%
    02:00 -12°C° 0 mm 7 mps 752 mmHg 69%
    03:00 -12°C° 0 mm 7 mps 753 mmHg 69%
    04:00 -12°C° 0 mm 6 mps 754 mmHg 70%
    05:00 -12°C° 0 mm 6 mps 755 mmHg 70%
    06:00 -12°C° 0 mm 6 mps 755 mmHg 70%
    07:00 -12°C° 0 mm 5 mps 756 mmHg 70%
    08:00 -12°C° 0 mm 5 mps 757 mmHg 71%
    09:00 -12°C° 0 mm 5 mps 757 mmHg 73%
    10:00 -12°C° 0 mm 5 mps 758 mmHg 75%
    11:00 -11°C° 0 mm 4 mps 759 mmHg 77%
    12:00 -11°C° 0 mm 4 mps 759 mmHg 78%
    13:00 -10°C° 0 mm 4 mps 759 mmHg 79%
    14:00 -10°C° 0 mm 4 mps 759 mmHg 80%
    15:00 -10°C° 0 mm 4 mps 759 mmHg 80%
    16:00 -10°C° 0 mm 4 mps 760 mmHg 79%
    17:00 -10°C° 0 mm 4 mps 760 mmHg 79%
    18:00 -9°C° 0 mm 3 mps 760 mmHg 79%
    19:00 -9°C° 0 mm 3 mps 760 mmHg 78%
    20:00 -9°C° 0 mm 3 mps 760 mmHg 77%
    21:00 -9°C° 0 mm 3 mps 760 mmHg 77%
    22:00 -9°C° 0 mm 3 mps 760 mmHg 76%
    23:00 -9°C° 0 mm 3 mps 760 mmHg 75%

    Tomorrow, 17 January, Thursday

    Time Temperature Precipitation Wind Pressure Humidity
    00:00 -8°C° 0 mm 3 mps 759 mmHg 76%
    01:00 -8°C° 0 mm 3 mps 759 mmHg 76%
    02:00 -8°C° 0 mm 3 mps 758 mmHg 77%
    03:00 -9°C° 0.1 mm 4 mps 758 mmHg 79%
    04:00 -8°C° 0.1 mm 4 mps 757 mmHg 82%
    05:00 -8°C° 0.1 mm 4 mps 757 mmHg 84%
    06:00 -8°C° 0.9 mm 5 mps 756 mmHg 87%
    07:00 -7°C° 0.9 mm 5 mps 756 mmHg 91%
    08:00 -6°C° 0.9 mm 6 mps 755 mmHg 94%
    09:00 -6°C° 1.1 mm 5 mps 755 mmHg 95%
    10:00 -4°C° 1.1 mm 4 mps 754 mmHg 95%
    11:00 -3°C° 1.1 mm 4 mps 754 mmHg 95%
    12:00 -2°C° 1.7 mm 4 mps 753 mmHg 94%
    13:00 -1°C° 1.7 mm 4 mps 753 mmHg 93%
    14:00 0°C° 1.7 mm 4 mps 753 mmHg 92%
    15:00 0°C° 1.1 mm 5 mps 753 mmHg 91%
    16:00 0°C° 1.1 mm 5 mps 752 mmHg 90%
    17:00 0°C° 1.1 mm 5 mps 752 mmHg 89%
    18:00 0°C° 0.3 mm 5 mps 752 mmHg 88%
    19:00 -1°C° 0.3 mm 4 mps 752 mmHg 88%
    20:00 -1°C° 0.3 mm 4 mps 752 mmHg 87%
    21:00 -2°C° 0 mm 4 mps 752 mmHg 87%
    22:00 -2°C° 0 mm 4 mps 753 mmHg 87%
    23:00 -3°C° 0 mm 4 mps 753 mmHg 86%

    Day after tomorrow, 18 January, Friday

    Time Temperature Precipitation Wind Pressure Humidity
    00:00 -3°C° 0 mm 4 mps 753 mmHg 87%
    01:00 -3°C° 0 mm 4 mps 753 mmHg 87%
    02:00 -3°C° 0 mm 4 mps 753 mmHg 87%
    03:00 -3°C° 0 mm 4 mps 753 mmHg 88%
    04:00 -2°C° 0 mm 4 mps 754 mmHg 88%
    05:00 -1°C° 0 mm 4 mps 754 mmHg 89%
    06:00 -1°C° 0 mm 4 mps 754 mmHg 89%
    07:00 -2°C° 0 mm 4 mps 754 mmHg 88%
    08:00 -2°C° 0 mm 4 mps 755 mmHg 87%
    09:00 -2°C° 0 mm 4 mps 755 mmHg 87%
    10:00 -2°C° 0 mm 4 mps 755 mmHg 86%
    11:00 -2°C° 0 mm 4 mps 755 mmHg 86%
    12:00 -2°C° 0 mm 4 mps 755 mmHg 86%
    13:00 -2°C° 0 mm 4 mps 755 mmHg 86%
    14:00 -2°C° 0 mm 4 mps 755 mmHg 86%
    15:00 -2°C° 0.1 mm 5 mps 755 mmHg 86%
    16:00 -2°C° 0.1 mm 5 mps 754 mmHg 86%
    17:00 -4°C° 0.1 mm 5 mps 754 mmHg 87%
    18:00 -2°C° 0 mm 5 mps 754 mmHg 87%
    19:00 -2°C° 0 mm 5 mps 754 mmHg 87%
    20:00 -2°C° 0 mm 5 mps 754 mmHg 87%
    21:00 -2°C° 0.1 mm 5 mps 754 mmHg 88%
    22:00 -2°C° 0.1 mm 6 mps 754 mmHg 89%
    23:00 -1°C° 0.1 mm 6 mps 753 mmHg 90%

    19 January, Saturday

    Time Temperature Precipitation Wind Pressure Humidity
    00:00 -1°C° 0.3 mm 6 mps 753 mmHg 92%
    01:00 0°C° 0.3 mm 7 mps 753 mmHg 93%
    02:00 0°C° 0.3 mm 8 mps 752 mmHg 94%
    03:00 0°C° 0.7 mm 8 mps 752 mmHg 92%
    04:00 0°C° 0.7 mm 9 mps 751 mmHg 90%
    05:00 0°C° 0.7 mm 9 mps 750 mmHg 89%
    06:00 0°C° 0.5 mm 10 mps 749 mmHg 89%
    07:00 0°C° 0.5 mm 10 mps 749 mmHg 90%
    08:00 -1°C° 0.5 mm 11 mps 748 mmHg 91%
    09:00 +1°C° 2.9 mm 10 mps 747 mmHg 93%
    10:00 +1°C° 2.9 mm 9 mps 746 mmHg 95%
    11:00 +1°C° 2.9 mm 8 mps 746 mmHg 96%
    12:00 0°C° 1 mm 8 mps 746 mmHg 91%
    13:00 -1°C° 1 mm 9 mps 746 mmHg 85%
    14:00 -1°C° 1 mm 9 mps 746 mmHg 79%
    15:00 -3°C° 0.2 mm 9 mps 747 mmHg 77%
    16:00 -4°C° 0.2 mm 8 mps 748 mmHg 74%
    17:00 -3°C° 0.2 mm 7 mps 749 mmHg 71%
    18:00 -3°C° 0.2 mm 7 mps 749 mmHg 71%
    19:00 -4°C° 0.2 mm 7 mps 750 mmHg 71%
    20:00 -4°C° 0.2 mm 7 mps 750 mmHg 70%
    21:00 -4°C° 0.2 mm 7 mps 750 mmHg 70%
    22:00 -5°C° 0.2 mm 8 mps 750 mmHg 69%
    23:00 -5°C° 0.2 mm 8 mps 750 mmHg 68%

    20 January, Sunday

    Time Temperature Precipitation Wind Pressure Humidity
    00:00 -5°C° 0.4 mm 8 mps 750 mmHg 69%
    01:00 -5°C° 0.4 mm 9 mps 750 mmHg 70%
    02:00 -5°C° 0.4 mm 10 mps 751 mmHg 72%
    03:00 -5°C° 0.2 mm 9 mps 751 mmHg 71%
    04:00 -5°C° 0.2 mm 9 mps 751 mmHg 70%
    05:00 -5°C° 0.2 mm 9 mps 751 mmHg 69%
    06:00 -5°C° 0.4 mm 10 mps 752 mmHg 69%
    07:00 -6°C° 0.4 mm 11 mps 752 mmHg 70%
    08:00 -6°C° 0.4 mm 11 mps 752 mmHg 71%
    09:00 -6°C° 0.2 mm 11 mps 753 mmHg 71%
    10:00 -6°C° 0.2 mm 11 mps 753 mmHg 72%
    11:00 -6°C° 0.2 mm 11 mps 753 mmHg 72%
    12:00 -5°C° 0.2 mm 10 mps 753 mmHg 72%
    13:00 -5°C° 0.2 mm 9 mps 753 mmHg 73%
    14:00 -4°C° 0.2 mm 9 mps 753 mmHg 73%
    15:00 -4°C° 0.2 mm 8 mps 752 mmHg 74%
    16:00 -3°C° 0.2 mm 7 mps 752 mmHg 76%
    17:00 -3°C° 0.2 mm 6 mps 752 mmHg 78%
    18:00 -3°C° 0.4 mm 6 mps 750 mmHg 81%
    19:00 -3°C° 0.4 mm 6 mps 749 mmHg 84%
    20:00 -3°C° 0.4 mm 6 mps 748 mmHg 87%
    21:00 -2°C° 1.1 mm 8 mps 745 mmHg 88%
    22:00 -3°C° 1.1 mm 9 mps 743 mmHg 89%
    23:00 -3°C° 1.1 mm 11 mps 740 mmHg 90%

    21 January, Monday

    Time Temperature Precipitation Wind Pressure Humidity
    00:00 -3°C° 2.3 mm 10 mps 738 mmHg 86%
    01:00 -3°C° 2.3 mm 9 mps 736 mmHg 82%
    02:00 -2°C° 2.3 mm 8 mps 735 mmHg 78%
    03:00 -3°C° 0.1 mm 6 mps 734 mmHg 76%
    04:00 -3°C° 0.1 mm 4 mps 734 mmHg 75%
    05:00 -4°C° 0.1 mm 3 mps 734 mmHg 73%
    06:00 -4°C° 0.2 mm 2 mps 734 mmHg 74%
    07:00 -5°C° 0.2 mm 2 mps 734 mmHg 75%
    08:00 -3°C° 0.2 mm 1 mps 734 mmHg 76%
    09:00 -3°C° 0 mm 1 mps 735 mmHg 76%
    10:00 -6°C° 0 mm 2 mps 735 mmHg 76%
    11:00 -6°C° 0 mm 2 mps 735 mmHg 75%
    12:00 -6°C° 0.1 mm 3 mps 735 mmHg 79%
    13:00 -5°C° 0.1 mm 4 mps 736 mmHg 83%
    14:00 -5°C° 0.1 mm 5 mps 736 mmHg 86%
    15:00 -7°C° 0.1 mm 7 mps 737 mmHg 85%
    16:00 -8°C° 0.1 mm 8 mps 738 mmHg 84%
    17:00 -10°C° 0.1 mm 9 mps 739 mmHg 82%
    18:00 -10°C° 0 mm 10 mps 740 mmHg 81%
    19:00 -10°C° 0 mm 10 mps 741 mmHg 80%
    20:00 -12°C° 0 mm 11 mps 742 mmHg 78%
    21:00 -12°C° 0 mm 11 mps 743 mmHg 78%
    22:00 -13°C° 0 mm 12 mps 744 mmHg 77%
    23:00 -13°C° 0 mm 12 mps 745 mmHg 77%
    Show more